When you browse on this site, cookies collect data to enhance your experience and personalize the content and advertising you see.
Visit our Privacy Policy to learn more. By continuing to use the site, you agree to this use of cookies and data.
  • In Österreich
  • Länderverzeichnis
  • Für 7 Tage
  • Wassertemperatur
  • Wetterkarte
  • News
  • Widgets
  • user-avatar
    Anmelden

    Stündliche Wetter Malye Chuchevichi

    Heute, 24 Oktober, Donnerstag

    Zeit Temperatur Niederschläge Wind Luftdruck Luftfeuchtigkeit
    00:00 +10°C° 0 mm 1 m/S 753 mmHg 91%
    01:00 +10°C° 0 mm 1 m/S 753 mmHg 92%
    02:00 +10°C° 0 mm 1 m/S 753 mmHg 92%
    03:00 +9°C° 0 mm 1 m/S 753 mmHg 93%
    04:00 +9°C° 0 mm 1 m/S 752 mmHg 93%
    05:00 +9°C° 0 mm 1 m/S 752 mmHg 94%
    06:00 +9°C° 0 mm 1 m/S 752 mmHg 93%
    07:00 +9°C° 0 mm 1 m/S 752 mmHg 92%
    08:00 +9°C° 0 mm 1 m/S 752 mmHg 92%
    09:00 +10°C° 0 mm 2 m/S 752 mmHg 84%
    10:00 +13°C° 0 mm 2 m/S 752 mmHg 77%
    11:00 +15°C° 0 mm 2 m/S 752 mmHg 69%
    12:00 +16°C° 0 mm 2 m/S 752 mmHg 68%
    13:00 +16°C° 0 mm 2 m/S 752 mmHg 66%
    14:00 +17°C° 0 mm 2 m/S 751 mmHg 64%
    15:00 +16°C° 0 mm 2 m/S 751 mmHg 70%
    16:00 +15°C° 0 mm 2 m/S 751 mmHg 76%
    17:00 +14°C° 0 mm 2 m/S 750 mmHg 82%
    18:00 +13°C° 0 mm 2 m/S 751 mmHg 83%
    19:00 +12°C° 0 mm 3 m/S 751 mmHg 84%
    20:00 +11°C° 0 mm 3 m/S 751 mmHg 85%
    21:00 +11°C° 0 mm 3 m/S 751 mmHg 87%
    22:00 +11°C° 0 mm 3 m/S 751 mmHg 89%
    23:00 +11°C° 0 mm 3 m/S 751 mmHg 91%

    Morgen, 25 Oktober, Freitag

    Zeit Temperatur Niederschläge Wind Luftdruck Luftfeuchtigkeit
    00:00 +11°C° 0 mm 3 m/S 751 mmHg 93%
    01:00 +11°C° 0 mm 3 m/S 751 mmHg 94%
    02:00 +11°C° 0 mm 3 m/S 751 mmHg 95%
    03:00 +10°C° 0 mm 3 m/S 750 mmHg 95%
    04:00 +10°C° 0 mm 3 m/S 750 mmHg 96%
    05:00 +10°C° 0 mm 3 m/S 750 mmHg 96%
    06:00 +10°C° 0 mm 3 m/S 750 mmHg 95%
    07:00 +10°C° 0 mm 3 m/S 750 mmHg 94%
    08:00 +10°C° 0 mm 3 m/S 750 mmHg 94%
    09:00 +12°C° 0 mm 3 m/S 750 mmHg 85%
    10:00 +14°C° 0 mm 3 m/S 750 mmHg 76%
    11:00 +17°C° 0 mm 3 m/S 750 mmHg 67%
    12:00 +17°C° 0 mm 3 m/S 750 mmHg 63%
    13:00 +18°C° 0 mm 3 m/S 750 mmHg 60%
    14:00 +19°C° 0 mm 3 m/S 749 mmHg 57%
    15:00 +18°C° 0 mm 3 m/S 749 mmHg 63%
    16:00 +16°C° 0 mm 3 m/S 749 mmHg 69%
    17:00 +15°C° 0 mm 2 m/S 749 mmHg 75%
    18:00 +14°C° 0 mm 2 m/S 750 mmHg 78%
    19:00 +14°C° 0 mm 2 m/S 750 mmHg 80%
    20:00 +13°C° 0 mm 2 m/S 750 mmHg 83%
    21:00 +13°C° 0 mm 2 m/S 751 mmHg 86%
    22:00 +12°C° 0 mm 2 m/S 751 mmHg 89%
    23:00 +12°C° 0 mm 2 m/S 751 mmHg 92%

    übermorgen, 26 Oktober, Samstag

    Zeit Temperatur Niederschläge Wind Luftdruck Luftfeuchtigkeit
    00:00 +12°C° 0 mm 2 m/S 752 mmHg 93%
    01:00 +10°C° 0 mm 2 m/S 752 mmHg 94%
    02:00 +10°C° 0 mm 2 m/S 752 mmHg 95%
    03:00 +10°C° 0 mm 2 m/S 753 mmHg 95%
    04:00 +10°C° 0 mm 2 m/S 753 mmHg 95%
    05:00 +10°C° 0 mm 2 m/S 753 mmHg 95%
    06:00 +11°C° 0 mm 1 m/S 753 mmHg 95%
    07:00 +11°C° 0 mm 1 m/S 753 mmHg 95%
    08:00 +11°C° 0 mm 1 m/S 753 mmHg 95%
    09:00 +12°C° 0 mm 1 m/S 753 mmHg 90%
    10:00 +14°C° 0 mm 2 m/S 753 mmHg 84%
    11:00 +14°C° 0 mm 3 m/S 753 mmHg 79%
    12:00 +16°C° 0 mm 3 m/S 753 mmHg 75%
    13:00 +16°C° 0 mm 3 m/S 753 mmHg 71%
    14:00 +17°C° 0 mm 3 m/S 753 mmHg 68%
    15:00 +16°C° 0 mm 3 m/S 752 mmHg 72%
    16:00 +14°C° 0 mm 3 m/S 752 mmHg 76%
    17:00 +14°C° 0 mm 2 m/S 751 mmHg 81%
    18:00 +13°C° 0 mm 3 m/S 751 mmHg 81%
    19:00 +13°C° 0 mm 3 m/S 751 mmHg 82%
    20:00 +12°C° 0 mm 3 m/S 751 mmHg 82%
    21:00 +12°C° 0 mm 3 m/S 751 mmHg 83%
    22:00 +12°C° 0 mm 3 m/S 751 mmHg 84%
    23:00 +12°C° 0 mm 4 m/S 751 mmHg 84%

    , 27 Oktober, Sonntag

    Zeit Temperatur Niederschläge Wind Luftdruck Luftfeuchtigkeit
    00:00 +12°C° 0 mm 3 m/S 750 mmHg 85%
    01:00 +12°C° 0 mm 3 m/S 750 mmHg 86%
    02:00 +12°C° 0 mm 3 m/S 750 mmHg 87%
    03:00 +11°C° 0 mm 3 m/S 750 mmHg 89%
    04:00 +11°C° 0 mm 3 m/S 749 mmHg 90%
    05:00 +11°C° 0 mm 3 m/S 749 mmHg 91%
    06:00 +11°C° 0 mm 3 m/S 749 mmHg 90%
    07:00 +11°C° 0 mm 3 m/S 749 mmHg 89%
    08:00 +11°C° 0 mm 3 m/S 749 mmHg 88%
    09:00 +13°C° 0 mm 4 m/S 749 mmHg 80%
    10:00 +14°C° 0 mm 4 m/S 748 mmHg 72%
    11:00 +16°C° 0 mm 5 m/S 748 mmHg 65%
    12:00 +17°C° 0 mm 5 m/S 748 mmHg 63%
    13:00 +17°C° 0 mm 5 m/S 748 mmHg 61%
    14:00 +19°C° 0 mm 5 m/S 747 mmHg 60%
    15:00 +18°C° 0 mm 4 m/S 747 mmHg 65%
    16:00 +17°C° 0 mm 4 m/S 747 mmHg 70%
    17:00 +14°C° 0 mm 3 m/S 747 mmHg 74%
    18:00 +14°C° 0 mm 3 m/S 746 mmHg 76%
    19:00 +13°C° 0 mm 3 m/S 746 mmHg 78%
    20:00 +13°C° 0 mm 3 m/S 746 mmHg 80%
    21:00 +12°C° 0 mm 3 m/S 746 mmHg 82%
    22:00 +12°C° 0 mm 3 m/S 746 mmHg 84%
    23:00 +11°C° 0 mm 3 m/S 746 mmHg 86%

    27 Oktober, Sonntag

    Zeit Temperatur Niederschläge Wind Luftdruck Luftfeuchtigkeit
    00:00 +12°C° 0 mm 3 m/S 750 mmHg 85%
    01:00 +12°C° 0 mm 3 m/S 750 mmHg 86%
    02:00 +12°C° 0 mm 3 m/S 750 mmHg 87%
    03:00 +11°C° 0 mm 3 m/S 750 mmHg 89%
    04:00 +11°C° 0 mm 3 m/S 749 mmHg 90%
    05:00 +11°C° 0 mm 3 m/S 749 mmHg 91%
    06:00 +11°C° 0 mm 3 m/S 749 mmHg 90%
    07:00 +11°C° 0 mm 3 m/S 749 mmHg 89%
    08:00 +11°C° 0 mm 3 m/S 749 mmHg 88%
    09:00 +13°C° 0 mm 4 m/S 749 mmHg 80%
    10:00 +14°C° 0 mm 4 m/S 748 mmHg 72%
    11:00 +16°C° 0 mm 5 m/S 748 mmHg 65%
    12:00 +17°C° 0 mm 5 m/S 748 mmHg 63%
    13:00 +17°C° 0 mm 5 m/S 748 mmHg 61%
    14:00 +19°C° 0 mm 5 m/S 747 mmHg 60%
    15:00 +18°C° 0 mm 4 m/S 747 mmHg 65%
    16:00 +17°C° 0 mm 4 m/S 747 mmHg 70%
    17:00 +14°C° 0 mm 3 m/S 747 mmHg 74%
    18:00 +14°C° 0 mm 3 m/S 746 mmHg 76%
    19:00 +13°C° 0 mm 3 m/S 746 mmHg 78%
    20:00 +13°C° 0 mm 3 m/S 746 mmHg 80%
    21:00 +12°C° 0 mm 3 m/S 746 mmHg 82%
    22:00 +12°C° 0 mm 3 m/S 746 mmHg 84%
    23:00 +11°C° 0 mm 3 m/S 746 mmHg 86%

    28 Oktober, Montag

    Zeit Temperatur Niederschläge Wind Luftdruck Luftfeuchtigkeit
    00:00 +11°C° 0 mm 3 m/S 746 mmHg 87%
    01:00 +11°C° 0 mm 3 m/S 745 mmHg 89%
    02:00 +10°C° 0 mm 3 m/S 745 mmHg 90%
    03:00 +10°C° 0 mm 3 m/S 745 mmHg 90%
    04:00 +10°C° 0 mm 3 m/S 745 mmHg 90%
    05:00 +11°C° 0 mm 3 m/S 745 mmHg 90%
    06:00 +11°C° 0 mm 3 m/S 745 mmHg 88%
    07:00 +11°C° 0 mm 3 m/S 746 mmHg 86%
    08:00 +11°C° 0 mm 3 m/S 746 mmHg 83%
    09:00 +11°C° 0 mm 4 m/S 746 mmHg 77%
    10:00 +11°C° 0 mm 4 m/S 746 mmHg 70%
    11:00 +12°C° 0 mm 4 m/S 747 mmHg 64%
    12:00 +11°C° 0 mm 4 m/S 747 mmHg 63%
    13:00 +11°C° 0 mm 4 m/S 747 mmHg 62%
    14:00 +11°C° 0 mm 3 m/S 747 mmHg 62%
    15:00 +10°C° 0 mm 3 m/S 747 mmHg 64%
    16:00 +10°C° 0 mm 2 m/S 747 mmHg 67%
    17:00 +9°C° 0 mm 2 m/S 747 mmHg 70%
    18:00 +8°C° 0 mm 2 m/S 747 mmHg 72%
    19:00 +8°C° 0 mm 2 m/S 748 mmHg 74%
    20:00 +8°C° 0 mm 1 m/S 748 mmHg 76%
    21:00 +8°C° 0 mm 1 m/S 748 mmHg 77%
    22:00 +7°C° 0 mm 1 m/S 748 mmHg 77%
    23:00 +7°C° 0 mm 1 m/S 748 mmHg 78%

    29 Oktober, Dienstag

    Zeit Temperatur Niederschläge Wind Luftdruck Luftfeuchtigkeit
    00:00 +7°C° 0 mm 1 m/S 748 mmHg 78%
    01:00 +5°C° 0 mm 0 m/S 748 mmHg 79%
    02:00 +5°C° 0 mm 0 m/S 748 mmHg 80%
    03:00 +5°C° 0 mm 0 m/S 748 mmHg 80%
    04:00 +5°C° 0 mm 0 m/S 748 mmHg 80%
    05:00 +5°C° 0 mm 0 m/S 748 mmHg 81%
    06:00 +5°C° 0 mm 0 m/S 748 mmHg 80%
    07:00 +5°C° 0 mm 0 m/S 748 mmHg 79%
    08:00 +6°C° 0 mm 1 m/S 748 mmHg 79%
    09:00 +7°C° 0 mm 1 m/S 748 mmHg 75%
    10:00 +8°C° 0 mm 1 m/S 748 mmHg 71%
    11:00 +10°C° 0 mm 1 m/S 748 mmHg 66%
    12:00 +10°C° 0.1 mm 1 m/S 748 mmHg 66%
    13:00 +10°C° 0.1 mm 1 m/S 748 mmHg 65%
    14:00 +10°C° 0.1 mm 1 m/S 748 mmHg 65%
    15:00 +9°C° 0.1 mm 1 m/S 748 mmHg 69%
    16:00 +9°C° 0.1 mm 1 m/S 748 mmHg 74%
    17:00 +8°C° 0.1 mm 1 m/S 748 mmHg 78%
    18:00 +6°C° 0.1 mm 0 m/S 748 mmHg 79%
    19:00 +6°C° 0.1 mm 0 m/S 748 mmHg 81%
    20:00 +6°C° 0.1 mm 0 m/S 749 mmHg 82%
    21:00 +5°C° 0 mm 0 m/S 749 mmHg 83%
    22:00 +6°C° 0 mm 1 m/S 749 mmHg 84%
    23:00 +5°C° 0 mm 1 m/S 749 mmHg 85%
    Mehr zeigen